Date String (YYYY-MM-DD hh:mm:ss) UTC,Instrument flags,Ambient pressure (hPa),Sample flow (lpm),Bypass flow (lpm),Sample temperature (°C),Ambient temperature (°C),ASC tube jacket temperature (°C),LED temperature (°C),Box temperature (°C),Sample RH (%),Span deviation,Mass concentration (μg/m³),Mass concentration (μg/m³),Mass concentration (μg/m³)
DateTimeUTC,F1_M11,P_M11,Q1_M11,Q2_M11,T1_M11,T2_M11,T3_M11,T4_M11,T5_M11,U1_M11,ZSPAN_M11,X2_M11,X0_M11,X1_M11
2023-04-14 23:00:00,,0822.9,5.01,0.00,23.0,21.2,00.0,31.3,24.5,20.9,0000.0,0001.91,0002.37,0001.79
2023-04-14 23:01:00,,0822.9,4.99,0.00,23.0,21.2,00.0,31.3,24.5,21.0,0000.0,0001.96,0002.36,0001.86
2023-04-14 23:02:00,,0823.0,4.99,0.00,23.0,21.2,00.0,31.3,24.5,21.0,0000.0,0002.02,0002.36,0001.94
2023-04-14 23:03:00,,0822.8,5.00,0.00,23.0,21.2,00.0,31.3,24.5,21.0,0000.0,0002.10,0002.42,0002.02
2023-04-14 23:04:00,,0823.1,5.00,0.00,22.9,21.2,00.0,31.2,24.5,21.0,0000.0,0002.20,0002.54,0002.11
2023-04-14 23:05:00,,0823.0,5.01,0.00,22.9,21.2,00.0,31.2,24.5,21.0,0000.0,0002.30,0002.64,0002.21
2023-04-14 23:06:00,,0822.9,4.99,0.00,22.9,21.2,00.0,31.2,24.5,21.0,0000.0,0002.39,0002.75,0002.28
2023-04-14 23:07:00,,0822.8,4.98,0.00,22.9,21.2,00.0,31.2,24.5,21.0,0000.0,0002.47,0002.82,0002.36
2023-04-14 23:08:00,,0823.1,5.00,0.00,22.9,21.2,00.0,31.2,24.5,21.0,0000.0,0002.56,0002.80,0002.44
2023-04-14 23:09:00,,0823.0,5.01,0.00,22.9,21.2,00.0,31.2,24.5,21.0,0000.0,0002.63,0002.85,0002.52
2023-04-14 23:10:00,,0822.8,5.01,0.00,22.9,21.2,00.0,31.2,24.5,21.0,0000.0,0002.72,0002.94,0002.60
2023-04-14 23:11:00,,0822.9,5.00,0.00,22.9,21.2,00.0,31.2,24.5,21.1,0000.0,0002.77,0002.98,0002.67
2023-04-14 23:12:00,,0823.1,4.99,0.00,22.9,21.2,00.0,31.2,24.5,21.1,0000.0,0002.84,0003.03,0002.74
2023-04-14 23:13:00,,0822.9,5.00,0.00,22.9,21.2,00.0,31.2,24.4,21.1,0000.0,0002.91,0003.10,0002.81
2023-04-14 23:14:00,,0822.9,4.99,0.00,22.9,21.2,00.0,31.2,24.5,21.2,0000.0,0003.01,0003.23,0002.88
2023-04-14 23:15:00,,0822.8,5.02,0.00,22.9,21.2,00.0,31.2,24.5,21.2,0000.0,0003.07,0003.27,0002.95
2023-04-14 23:16:00,,0822.9,5.00,0.00,22.9,21.2,00.0,31.2,24.5,21.3,0000.0,0003.12,0003.32,0003.02
2023-04-14 23:17:00,,0823.0,4.98,0.00,22.9,21.2,00.0,31.2,24.5,21.3,0000.0,0003.15,0003.34,0003.10
2023-04-14 23:18:00,,0823.1,5.01,0.00,22.9,21.2,00.0,31.2,24.5,21.4,0000.0,0003.19,0003.42,0003.13
2023-04-14 23:19:00,,0823.0,5.00,0.00,22.9,21.2,00.0,31.2,24.5,21.4,0000.0,0003.20,0003.41,0003.16
2023-04-14 23:20:00,,0823.1,5.01,0.00,22.9,21.2,00.0,31.2,24.5,21.3,0000.0,0003.24,0003.48,0003.19
2023-04-14 23:21:00,,0823.1,5.00,0.00,22.9,21.2,00.0,31.2,24.5,21.3,0000.0,0003.26,0003.50,0003.22
2023-04-14 23:22:00,,0823.0,4.99,0.00,22.9,21.2,00.0,31.2,24.5,21.4,0000.0,0003.29,0003.53,0003.24
2023-04-14 23:23:00,,0823.1,5.00,0.00,22.9,21.2,00.0,31.2,24.4,21.6,0000.0,0003.31,0003.56,0003.26
2023-04-14 23:24:00,,0823.1,5.00,0.00,22.8,21.2,00.0,31.2,24.4,21.7,0000.0,0003.32,0003.57,0003.27
2023-04-14 23:25:00,,0823.2,5.01,0.00,22.8,21.1,00.0,31.2,24.3,21.7,0000.0,0003.31,0003.55,0003.27
2023-04-14 23:26:00,,0823.1,5.01,0.00,22.8,21.1,00.0,31.2,24.3,21.8,0000.0,0003.31,0003.54,0003.27
2023-04-14 23:27:00,,0823.1,5.00,0.00,22.8,21.1,00.0,31.2,24.3,21.8,0000.0,0003.30,0003.55,0003.25
2023-04-14 23:28:00,,0823.1,4.99,0.00,22.8,21.1,00.0,31.2,24.3,21.9,0000.0,0003.29,0003.56,0003.23
2023-04-14 23:29:00,,0823.1,4.99,0.00,22.7,21.1,00.0,31.2,24.3,21.9,0000.0,0003.26,0003.47,0003.21
2023-04-14 23:30:00,,0823.1,5.00,0.00,22.7,21.1,00.0,31.2,24.3,22.0,0000.0,0003.23,0003.42,0003.18
2023-04-14 23:31:00,,0823.2,5.00,0.00,22.7,21.1,00.0,31.1,24.3,22.1,0000.0,0003.20,0003.40,0003.14
2023-04-14 23:32:00,,0823.1,5.01,0.00,22.7,21.1,00.0,31.1,24.2,22.1,0000.0,0003.16,0003.36,0003.11
2023-04-14 23:33:00,,0823.2,5.00,0.00,22.7,21.1,00.0,31.1,24.2,22.2,0000.0,0003.13,0003.31,0003.06
2023-04-14 23:34:00,,0823.1,4.99,0.00,22.7,21.1,00.0,31.1,24.2,22.2,0000.0,0003.10,0003.26,0003.00
2023-04-14 23:35:00,,0823.3,5.00,0.00,22.7,21.1,00.0,31.1,24.2,22.3,0000.0,0003.05,0003.21,0002.95
2023-04-14 23:36:00,,0823.3,5.01,0.00,22.7,21.1,00.0,31.1,24.2,22.4,0000.0,0002.99,0003.15,0002.89
2023-04-14 23:37:00,,0823.4,5.01,0.00,22.6,21.1,00.0,31.1,24.2,22.4,0000.0,0002.93,0003.09,0002.83
2023-04-14 23:38:00,,0823.4,5.00,0.00,22.6,21.1,00.0,31.1,24.1,22.5,0000.0,0002.87,0003.01,0002.79
2023-04-14 23:39:00,,0823.5,4.99,0.00,22.6,21.1,00.0,31.1,24.1,22.5,0000.0,0002.83,0002.95,0002.76
2023-04-14 23:40:00,,0823.5,4.99,0.00,22.6,21.0,00.0,31.1,24.1,22.5,0000.0,0002.80,0002.93,0002.73
2023-04-14 23:41:00,,0823.5,5.01,0.00,22.6,21.0,00.0,31.1,24.2,22.6,0000.0,0002.77,0002.91,0002.70
2023-04-14 23:42:00,,0823.5,5.00,0.00,22.6,21.0,00.0,31.0,24.2,22.6,0000.0,0002.74,0002.85,0002.68
2023-04-14 23:43:00,,0823.5,5.01,0.00,22.6,21.0,00.0,31.0,24.2,22.6,0000.0,0002.70,0002.80,0002.65
2023-04-14 23:44:00,,0823.5,4.98,0.00,22.6,21.0,00.0,31.0,24.2,22.6,0000.0,0002.65,0002.72,0002.62
2023-04-14 23:45:00,,0823.6,5.00,0.00,22.6,21.0,00.0,31.0,24.1,22.6,0000.0,0002.61,0002.68,0002.58
2023-04-14 23:46:00,,0823.6,5.00,0.00,22.6,21.0,00.0,31.0,24.1,22.6,0000.0,0002.59,0002.69,0002.56
2023-04-14 23:47:00,,0823.6,5.01,0.00,22.6,21.0,00.0,31.0,24.1,22.6,0000.0,0002.58,0002.68,0002.54
2023-04-14 23:48:00,,0823.7,5.00,0.00,22.6,21.0,00.0,31.0,24.1,22.6,0000.0,0002.57,0002.68,0002.53
2023-04-14 23:49:00,,0823.8,5.00,0.00,22.5,21.0,00.0,31.0,24.1,22.6,0000.0,0002.57,0002.69,0002.51
2023-04-14 23:50:00,,0823.8,5.01,0.00,22.5,21.0,00.0,31.0,24.1,22.6,0000.0,0002.56,0002.68,0002.51
2023-04-14 23:51:00,,0823.8,5.00,0.00,22.5,21.0,00.0,31.0,24.1,22.6,0000.0,0002.56,0002.66,0002.50
2023-04-14 23:52:00,,0823.8,5.00,0.00,22.5,21.0,00.0,31.0,24.1,22.6,0000.0,0002.56,0002.67,0002.50
